Regional Weather Roundup
Issued by NWS

Home | Current Version | Previous Version | Graphics & Text | Print | Product List | Glossary On
Versions: 1 2 3 4 5 6 7 8 9 10 11 12 13 14 15 16 17 18 19 20 21 22 23 24 25 26 27 28 29 30 31 32 33 34 35 36 37 38 39 40 41 42 43 44 45 46 47 48 49 50
000
ASUS44 KMEG 100410
RWRTN
TENNESSEE HOURLY STATE WEATHER ROUNDUP
NATIONAL WEATHER SERVICE MEMPHIS TN
1000 PM CST FRI DEC 09 2016

TNZ002-004-019-021-049-052-054-088>092-100500-
WEST TENNESSEE

CITY           SKY/WX    TMP DP  RH WIND       PRES   REMARKS
MEMPHIS INTL   CLEAR     28  19  69 N3        30.60R
NWS MEMPHIS      N/A     25 N/A N/A MISG        N/A
JACKSON        CLEAR     23  19  85 CALM      30.60R
DYERSBURG      CLEAR     25  19  80 CALM      30.60R
UNION CITY     CLEAR     21  16  79 CALM      30.59R
PARIS          CLEAR     19  12  73 CALM      30.58S
HUNTINGDON     CLEAR     25  18  74 CALM      30.58R
LEXINGTON      CLEAR     21  18  86 CALM      30.57R
$$

TNZ008-025-027-028-033-062-065-066-100500-
NORTH MIDDLE TENNESSEE

CITY           SKY/WX    TMP DP  RH WIND       PRES   REMARKS
NASHVILLE      CLEAR     27  17  66 N7        30.58R WCI  19
PORTLAND       CLEAR     23  16  74 CALM      30.57R
CLARKSVILLE    CLEAR     24  15  68 CALM      30.59R
SMYRNA         CLEAR     23  18  81 CALM      30.59R
GALLATIN       PTCLDY    25  18  74 N6        30.60S WCI  18
CROSSVILLE     CLEAR     21  14  74 NE3       30.48R
$$

TNZ061-075-076-078-094-096-097-100500-
SOUTH MIDDLE TENNESSEE

CITY           SKY/WX    TMP DP  RH WIND       PRES   REMARKS
FAYETTEVILLE   PTCLDY    27  18  69 N5        30.53R WCI  21
TULLAHOMA      CLEAR     21  14  73 CALM      30.53R
WINCHESTER     CLEAR     21  18  86 CALM      30.53R
MCMINNVILLE    CLEAR     23  16  74 N3          N/A
COLUMBIA       CLEAR     25  25 100 CALM      30.55R
SHELBYVILLE    CLEAR     23  19  86 N5        30.56R WCI  17
$$

TNZ017-018-042-046-047-100500-
NORTHEAST TENNESSEE

CITY           SKY/WX    TMP DP  RH WIND       PRES   REMARKS
TRI CITIES     CLEAR     19  13  77 N5        30.50R WCI  12
ELIZABETHTON   CLEAR     18  16  93 CALM      30.49R
$$

TNZ012-013-036-069-073-074-100500-
CENTRAL EAST TENNESSEE

CITY           SKY/WX    TMP DP  RH WIND       PRES   REMARKS
KNOXVILLE      CLEAR     26  16  65 NE3       30.52R
OAK RIDGE      CLEAR     27  16  63 CALM      30.55R
DOWNTOWN KNOXV CLEAR     28  18  64 N5        30.54R WCI  23
GATLINBURG     CLEAR     19  16  86 CALM      30.52R
MORRISTOWN     CLEAR     21  18  86 CALM      30.50R
JACKSBORO      CLEAR     21  18  86 CALM      30.55S
$$

TNZ083-085-099-100500-
SOUTHEAST TENNESSEE

CITY           SKY/WX    TMP DP  RH WIND       PRES   REMARKS
CHATTANOOGA    CLEAR     30  17  58 NE5       30.53R WCI  25
$$

SKY/WX REPORTED AS FAIR MEANS FEW OR NO CLOUDS BELOW
12 THOUSAND FEET.




USA.gov is the U.S. government's official web portal to all federal, state and local government web resources and services.